Volver al catálogo

SL-8 DEB

ActivoLEO
NORAD 11113·DEBRIS·🇷🇺 Russia

Lanzado Nov 16, 1978 desde Plesetsk Cosmodrome

Loading…

Próximos Pases (próximas 24 horas)

TLE

ActualizadoSource: Space-Track

Época: Sep 14, 2026, 12:55 UTC

1 11113U 78105C   26257.53855608  .00003182  00000-0  33656-3 0  9990
2 11113  74.0169 299.6525 0004831 101.4748 258.6976 14.89651519533222

Sigue SL-8 DEB en tiempo real con AllMySat

Download on the App Store